Regional Weather Roundup
Issued by NWS Wakefield, VA

Home | Current Version | Previous Version | Text Only | Print | Product List | Glossary On
Versions: 1 2 3 4 5 6 7 8 9 10 11 12 13 14 15 16 17 18 19 20 21 22 23 24 25 26 27 28 29 30 31 32 33 34 35 36 37 38 39 40 41 42 43 44 45 46 47 48 49 50
000
ASUS41 KAKQ 261015
RWRAKQ

REGIONAL WEATHER ROUNDUP
NATIONAL WEATHER SERVICE WAKEFIELD VA
600 AM EDT TUE JUL 26 2016

Note: "fair" indicates few or no clouds below 12,000 feet with no
significant weather and/or obstructions to visibility. * = Denotes
station may not report precipitation (e.g., rain,snow,etc.),
thunder or fog.

VAZ042-051-052>054-056-261100-
NORTHERN VIRGINIA

CITY           SKY/WX    TMP DP  RH WIND       PRES   REMARKS
WASH NATIONAL  MOCLDY    80  73  79 N6        29.93R
DULLES         CLOUDY    77  72  84 NW5       29.95R
FORT BELVOIR   FAIR      75  73  94 CALM      29.93R FOG
QUANTICO       NOT AVBL
FREDERICKSBRG* FAIR      78  78 100 CALM      29.92R
STAFFORD*      FAIR      75  73  94 CALM      29.97R
WARRENTON      FAIR      74  69  84 CALM      29.94R
CULPEPER*      FAIR      75  75 100 CALM      29.96R FOG
MANASSAS*      FAIR      77  75  94 CALM      29.94R
LEESBURG*      FAIR      77  73  88 W7        29.96R
WINCHESTER     FAIR      73  70  88 CALM      29.97R
FRONT ROYAL*   FAIR      73  70  88 CALM      29.96R
LURAY*         PTSUNNY   73  73 100 CALM      29.99R
$$

VAZ048-049-060>072-079>083-261100-
CENTRAL AND SOUTH CENTRAL VIRGINIA

CITY           SKY/WX    TMP DP  RH WIND       PRES   REMARKS
RICHMOND       FAIR      79  73  82 SW6       29.94R
CHESTERFIELD*  FAIR      79  63  57 W5        29.96R
PETERSBURG*    FAIR      77  77 100 CALM      29.95S
HANOVER        FAIR      79  73  82 SW3       29.95S
TAPPAHANNOCK*  FAIR      79  79 100 CALM      29.93S
QUINTON*       FAIR      78  76  91 MISG      29.93R
CHARLOTTSVILLE FAIR      80  71  74 W5        29.96R
GORDONSVILLE*  FAIR      73  72  99 NE5       29.95R
ORANGE*          N/A     73  73 100 CALM      29.97R
LOUISA*        FAIR      77  75  94 CALM      29.95R FOG
BUMPASS*       FAIR      74  74 100 CALM      29.95R
FARMVILLE*     FAIR     N/A N/A N/A CALM      29.95R
CREWE*         FAIR      76  76 100 CALM      29.96R
FORT PICKETT*  FAIR      77  76  96 SW7       29.96S
CHASE CITY*    FAIR      75  73  95 CALM      29.98S
CLARKSVILLE*   FAIR      73  73 100 SW3       29.98R
SOUTH HILL*    FAIR      76  73  91 S3        30.03R
LAWRENCEVILLE* FAIR      75  74  95 SW5       29.97R
EMPORIA*       FAIR      77  73  88 S5        29.97S
$$

VAZ088>098-261100-
SOUTHEAST VIRGINIA

CITY           SKY/WX    TMP DP  RH WIND       PRES   REMARKS
NORFOLK        FAIR      81  72  74 SW14      29.94R
VIRGINIA BEACH FAIR      84  72  67 SW14      29.93R
NORFOLK NAVAL  FAIR      81  73  76 SW9G18    29.96R
WEST POINT*    FAIR      80  75  86 W6        29.94R
SALUDA*        FAIR      80  77  90 SW5       29.92R
NEWPORT NEWS   FAIR      81  76  84 SW10      29.94R
LANGLEY AFB    FAIR      80  75  85 SW14      29.93S
FORT EUSTIS    FAIR      80  76  87 SW5       29.92S
WILLIAMSBURG*  FAIR      82  75  78 W6        29.95R
HR EXEC AP*    FAIR      79  72  78 SW8       29.98R
FRANKLIN*      MOCLDY    77  73  88 SW5       29.97R
US460-WAKEFLD  FAIR      78  74  87 SW6       29.95R
$$

VAZ020-022-025-037-045-261100-
WEST CENTRAL AND SOUTHWEST VIRGINIA

CITY           SKY/WX    TMP DP  RH WIND       PRES   REMARKS
STAUNTON*      FAIR      71  69  95 CALM      30.03S
WAYNESBORO*    FAIR      77  70  79 W6        30.03R
HOT SPRINGS VA MOCLDY    70  70 100 W8        30.16R
LYNCHBURG      FAIR      72  71  97 CALM      30.01R
DANVILLE       FAIR      74  72  93 S5        30.00R
SOUTH BOSTON*  FAIR      75  74  95 CALM      29.98R
MARTINSVILLE   FAIR      71  70  97 CALM      30.04S FOG
ROANOKE        FAIR      76  71  85 NW6       30.04R
BLACKSBURG     FAIR      69  69 100 CALM      30.13R FOG
DUBLIN*        FAIR      71  70  99 W3        30.11R
MARION*        FAIR      68  67  95 W5        30.16R
HILLSVILLE*    FOG       69  69 100 CALM      30.12S VSB 1/2
RICHLANDS*     FAIR      69  69 100 CALM      30.14R
WISE*          FAIR      68  66  94 SW3       30.15R FOG
ABINGDON*      FAIR      70  69  96 CALM      30.11S
$$

MDZ021>025-VAZ099-100-261100-
SOUTHERN MARYLAND AND THE DELMARVA PENINSULA

CITY           SKY/WX    TMP DP  RH WIND       PRES   REMARKS
PATUXENT RIVER CLOUDY    78  75  90 NW6       29.91R
BAY BRIDGE APT PTCLDY    77  75  94 CALM      29.92R
LEONARDTOWN    CLOUDY    75  73  94 CALM      29.94R
DOVER          PTCLDY    75  75 100 NW5       29.90R
GEORGETOWN     PTCLDY    74  72  93 NW3       29.91R
EASTON         PTCLDY    76  76 100 CALM      29.95R
CAMBRIDGE      PTCLDY    72  72 100 CALM      29.91R
SALISBURY      PTCLDY    75  73  93 CALM      29.91R
OCEAN CITY     PTCLDY    76  74  93 NW3       29.90R
WALLOPS ISLAND FAIR      79  76  90 SW7       29.90R
ACCOMACK*      FAIR      82  75  78 CALM      29.92R
$$

NCZ012>017-030>032-261100-
NORTH CENTRAL AND EASTERN NORTH CAROLINA

CITY           SKY/WX    TMP DP  RH WIND       PRES   REMARKS
ROANOKE RAPIDS FAIR      75  72  88 SW7       29.97S
RALEIGH        PTCLDY    77  72  84 W6        30.01R
ELIZABETH CITY MOCLDY    79  73  82 SW10      29.97R
AHOSKIE*       CLEAR     75  73  93 CALM      29.97S
EDENTON*       MOCLDY    82  73  75 SW9G18    29.99R
CURRITUCK*     CLEAR     80  73  80 SW8G16    29.97R
KILL DEVIL HLS CLEAR     80  73  79 SW9       29.97R
MANTEO           N/A     79  76  90 W10G17    29.99R
CAPE HATTERAS  PTCLDY    80  75  84 W10       30.01S
TARBORO*       FAIR      77  73  86 SW5       29.99S
GOLDSBORO      CLEAR     77  77 100 SW6       30.00R
WASHINGTON     NOT AVBL
GREENVILLE     PTCLDY    77  73  88 SW6       30.01S
NEW BERN       CLEAR     76  73  91 SW6       30.02S
WILMINGTON     PTCLDY    77  73  87 SW6       30.03R
$$

VAZ048-261100-
ELSEWHERE

CITY           SKY/WX    TMP DP  RH WIND       PRES   REMARKS
HARRISBURG PA  FOG       72  72 100 W6        29.94S VSB 1/2
BALTIMORE      CLOUDY    74  70  87 NW3       29.92R
ANNAPOLIS      PTCLDY    79  76  90 N5        29.91R
ANDREWS AFB    FAIR      74  72  93 NW3       29.93R
PHILADELPHIA   MOCLDY    75  71  87 W6        29.92R
GREENSBORO     CLOUDY    77  71  82 SW6       30.01S
ROCKY MOUNT    CLEAR     76  73  91 S7        29.99S
$$

VAZ100-261100-
MARINE

STATION/POSITION TIME  TEMP    WIND        PRES    WAVE   SWELL
                       AIR SEA DIR/SP/G            HT/PER HT/PER
                 (UTC) (F)     (DEG/KT/KT) (MB)    (FT/S) (FT/S)
BRANDYWINE LGT   0906   78     330/  7/  8   N/A
CAPE MAY NJ      0900   77 72  310/  2/  5 1011.7R
LEWES DE         0900   76 74  330/  7/  8 1012.0R
OCEAN-CITY-INLET 0900   78 69  300/  7/  8 1012.0R
WACHAPREAGUE VA  0900   82 85  230/  5/  8 1012.4F
THOMAS POINT MD  1000   79 82  350/  6/  6 1014.5R
GOOSES REEF MD   1000   81 84  350/ 10/ 12 1013.9R   1
COVE POINT MD    0900   78     340/  7/  8 1012.8F
SOLOMONS ISLAND  0900   80 85  320/  5/  7   N/A
BISHOPS HEAD MD  0900   85 86  230/ 11/ 12 1012.3F
PINEY POINT MD   0900          290/  8/ 10   N/A
POTOMAC MD       1000   84 86  280/ 12/ 14 1011.7R   1/ 2
CAMBRIDGE MD     0900   77 87  290/  2/  3 1011.6R
LEWISETTA VA     0900   83 86  250/  8/  9 1011.8F
RAPPAHANNOCK LGT 0900          240/ 17/ 19 1013.0F
STINGRAY PT      1000   83 84  210/ 14/ 17 1013.3R   1/ 2
YORK RVR RNG VA  0900   83     250/ 17/ 19 1012.4S
YORKTOWN VA      0900   82 83  230/ 11/ 14 1012.7S
JAMESTOWN VA     1000   81 88  250/  6/  8   N/A     0
DOMINION TERM VA 0900   81     250/  9/ 10 1013.9R
KIPTOPEKE VA     0900      82  250/ 14/ 17   N/A
CHES BAY BRIDGE  0900   81 74  220/ 17/ 20 1013.1R
CAPE HENRY VA    0900   81     240/ 13/ 18   N/A
WILLOUBY STN VA  0900   81     230/ 16/ 19   N/A
CAPE HENRY BUOY  0912      75                N/A     2/ 4
1ST LANDING BUOY 1000   81 78  230/ 16/ 19 1013.3R
CAPE CHARLES BUO 0926      69                N/A     2/ 3
OFFSHORE WE BUOY 0921      81                N/A     3/ 5
64NM E OF VA BCH 0950   81 80  240/ 17/ 21 1013.6R   4/ 6
DUCK PIER NC     0900   81 62  240/ 16/ 21 1014.0F
44100 DUCK FRF   0905      73                N/A     2/ 6
44056 DUCK FRF   0911      65                N/A     1/ 9
OREGON INLET NC  0900   81 85  230/ 16/ 18 1014.9F
HATTERAS NC      0900   80 83  230/  8/ 12 1015.7F
DIAMOND SHLS NC  0950   83 85  250/ 19/ 21 1015.9F   5/ 5
CAPE LOOKOUT NC  1000   82     250/ 14/ 17 1016.4R
$$



USA.gov is the U.S. government's official web portal to all federal, state and local government web resources and services.